GFSFLT2_850_spd_087.txt.gz
Wind_Speed
15 14 12 11 12 14 16 17 17 16 14 17 18 20 21 21 23 23 22 15 12 12 13 12 16 19 19 18 18 16 14 14
18 17 15 13 14 15 17 18 18 18 17 19 20 21 22 25 27 24 18 14 15 13 12 13 16 20 19 18 17 15 15 12
20 19 17 15 13 15 18 20 20 21 21 21 21 22 24 25 27 25 20 23 22 17 15 15 19 20 19 19 18 13 11 14
16 21 19 17 14 14 17 19 21 22 23 22 22 24 26 28 28 27 21 27 26 28 24 17 20 23 22 19 17 17 15 11
18 18 21 19 18 13 12 15 18 21 21 22 20 23 24 26 30 34 26 25 26 25 24 21 26 26 25 22 15 19 13 10
22 19 22 18 14 15 14 20 21 19 22 22 22 24 24 25 27 26 29 30 27 28 33 27 28 27 25 22 21 15 15 13
25 23 22 20 22 20 19 20 23 24 24 22 23 23 26 22 24 26 28 29 27 29 31 32 30 25 24 23 19 15 14 11
25 24 24 24 22 21 22 21 21 24 24 22 24 25 24 24 23 24 29 27 29 28 30 29 30 26 23 20 16 15 14 12
27 25 24 24 22 20 22 22 21 22 22 21 22 25 22 27 25 27 27 23 27 25 34 28 28 23 21 20 19 15 16 15
28 25 26 25 20 18 15 17 19 21 20 22 22 22 22 25 28 29 23 21 24 33 35 33 28 26 26 21 17 15 16 16
30 28 26 25 21 19 17 17 18 22 22 22 23 23 26 26 28 28 23 21 22 22 36 31 27 26 25 21 17 16 17 16
29 28 25 25 21 20 19 19 16 22 24 21 20 22 24 27 31 31 26 26 29 30 29 28 24 24 26 22 18 17 15 15
30 29 27 26 30 26 22 21 17 21 23 22 23 24 24 26 27 31 29 36 32 36 36 32 28 28 25 26 20 21 19 20
29 28 27 33 30 21 20 17 15 15 21 22 25 26 26 26 26 24 32 33 31 39 41 37 32 32 29 31 16 17 16 18
29 28 27 28 22 20 16 14 14 16 17 18 18 20 22 24 27 29 32 39 32 41 41 41 38 33 31 30 16 13 18 19
27 28 28 27 24 22 20 18 16 15 15 15 16 22 20 23 25 28 32 35 40 39 43 45 39 36 32 25 17 16 24 14
27 28 28 28 26 23 20 17 13 14 14 17 16 20 19 22 25 32 35 36 47 46 48 49 41 39 37 30 22 16 22 18
27 28 29 30 28 23 20 18 15 14 15 18 18 15 15 16 16 16 31 34 45 47 46 51 41 37 35 32 25 22 17 18
27 30 33 30 28 23 20 17 16 15 15 19 18 14 9 6 5 12 27 28 37 40 46 39 46 36 34 29 26 22 19 17
30 33 36 33 27 23 20 17 14 14 17 18 17 14 10 9 7 5 21 30 26 37 43 36 41 37 32 32 32 26 21 17

GFSFLT2_850_spd_090.txt.gz
Wind_Speed
16 15 12 10 9 9 10 12 13 12 12 13 12 13 16 16 17 19 22 18 19 17 5 8 8 11 15 17 17 13 12 13
18 18 15 12 10 10 11 13 14 14 14 15 14 15 16 18 20 22 21 18 16 21 23 12 12 13 15 17 17 14 14 14
21 19 17 15 13 11 13 15 16 16 17 17 17 17 19 20 20 21 20 17 16 17 18 15 15 16 17 18 18 14 15 14
25 21 19 18 15 14 14 16 18 18 19 19 19 20 22 22 22 22 23 17 15 14 14 13 15 18 20 19 17 16 17 16
23 24 24 20 16 16 15 16 17 19 20 21 20 23 23 25 25 26 26 23 18 22 23 19 17 21 24 22 19 16 17 16
24 23 22 23 20 17 12 12 13 15 16 20 20 24 24 26 27 28 31 31 20 24 24 22 26 24 24 26 21 19 19 14
29 26 25 21 19 14 17 20 18 16 18 21 23 24 24 25 25 26 31 32 30 27 25 23 24 26 26 27 23 20 18 18
36 33 31 24 24 28 24 23 18 20 21 21 21 23 23 25 24 26 26 28 30 29 26 29 30 27 28 27 25 20 19 17
38 34 31 26 32 29 26 22 20 19 18 20 21 23 23 23 23 21 25 27 28 29 26 26 30 30 30 28 26 17 16 14
34 34 32 27 32 26 22 20 20 20 17 18 21 20 22 23 22 24 28 26 27 22 23 25 26 34 30 31 24 24 23 9
35 36 34 29 24 21 20 18 16 16 15 16 19 20 21 21 23 25 25 25 23 18 25 30 30 25 27 27 25 22 21 19
35 36 34 30 27 25 20 20 17 15 18 18 19 22 23 23 24 27 25 24 19 18 19 35 33 29 27 26 24 22 22 21
35 35 34 31 30 33 32 26 20 18 20 20 22 21 23 23 23 24 24 24 21 18 21 26 37 27 27 24 22 21 18 22
33 32 35 32 33 36 29 26 20 18 17 19 22 24 23 22 24 26 27 26 25 24 30 29 32 26 29 28 22 24 23 23
29 31 34 31 34 31 24 19 17 17 15 16 22 22 22 22 23 25 24 26 28 30 35 34 40 36 30 33 20 15 26 24
26 30 32 31 38 28 27 26 28 21 20 17 15 16 18 19 21 24 26 26 31 32 33 39 41 39 33 30 28 25 28 17
34 31 30 34 35 29 28 23 20 15 13 13 15 20 20 18 19 21 24 29 33 36 35 42 47 42 38 29 27 19 26 23
38 33 33 34 30 29 29 26 18 18 17 19 22 22 20 21 23 25 26 30 36 39 32 38 48 48 40 34 31 25 29 23
40 38 35 33 30 31 27 22 21 21 19 19 22 20 18 16 13 15 22 24 37 38 33 39 45 50 43 38 34 28 17 25
36 39 35 35 33 32 24 23 25 18 16 18 20 20 14 11 9 7 12 15 17 31 40 43 49 50 43 38 34 27 29 20

GFSFLT2_850_spd_093.txt.gz
Wind_Speed
17 16 14 13 12 10 10 11 12 13 13 12 13 14 15 16 16 18 19 18 17 16 14 12 12 13 13 19 16 15 16 16
19 20 17 15 13 11 11 11 12 13 14 14 14 15 16 17 19 21 20 19 19 18 14 12 9 13 17 19 16 15 15 15
23 22 22 18 15 13 12 11 12 14 15 15 16 16 17 19 20 20 20 20 20 19 19 18 11 18 19 20 17 15 15 17
26 25 24 22 19 16 14 13 12 13 15 16 17 18 18 19 20 19 21 21 20 17 17 16 16 20 22 21 19 16 17 19
27 27 25 25 22 19 16 15 14 14 15 17 18 19 20 21 22 22 24 24 23 20 20 21 17 21 23 24 23 18 20 19
31 27 28 26 23 22 18 17 15 15 17 18 19 22 22 23 25 25 27 29 27 24 16 22 23 21 23 25 25 21 21 20
36 29 27 28 27 23 20 19 16 14 15 16 18 21 22 23 24 27 29 31 32 28 18 21 24 23 23 26 29 22 23 22
40 34 28 26 28 25 22 20 16 14 15 15 18 22 22 21 23 25 28 31 34 32 22 23 23 24 27 28 29 24 23 22
38 39 33 30 25 28 26 24 21 19 18 16 18 21 22 21 22 24 25 28 31 29 23 23 23 26 23 28 31 27 26 20
33 42 39 35 30 29 30 29 26 23 19 17 19 21 21 22 23 23 24 26 26 25 26 26 24 27 25 30 32 29 25 23
31 41 42 40 34 31 33 31 30 26 18 18 19 21 22 22 24 24 25 25 23 25 26 26 25 22 29 31 33 28 29 24
35 39 43 43 38 32 30 30 25 21 19 18 20 20 21 21 21 23 25 26 25 22 23 24 23 16 25 30 30 30 26 21
39 38 49 45 39 33 30 32 26 23 21 19 20 17 21 23 22 22 25 25 23 22 21 23 25 25 17 31 29 33 25 19
36 38 51 45 39 34 31 30 27 21 22 20 21 20 23 25 24 21 22 22 25 25 21 25 27 31 29 30 24 29 25 23
35 36 49 44 40 35 31 28 25 23 25 22 24 22 24 23 22 23 25 26 27 27 25 27 29 32 29 28 22 16 29 26
31 42 50 45 38 35 35 37 36 34 27 20 22 24 25 23 23 26 27 30 30 29 29 28 31 39 33 30 23 27 33 23
32 40 45 38 36 33 29 35 33 29 21 19 16 18 19 21 26 29 31 30 30 29 31 31 37 43 40 39 28 27 36 31
36 43 41 35 34 30 28 31 31 28 21 22 18 18 19 22 23 25 24 26 29 32 31 34 47 44 46 44 37 33 35 28
39 41 39 36 33 25 28 27 27 25 22 23 21 22 24 25 24 25 24 26 28 29 36 39 38 44 45 47 40 29 25 28
32 37 35 34 30 27 28 29 25 24 23 24 21 24 24 21 18 17 18 22 31 32 35 40 39 42 47 49 44 33 20 24

GFSFLT2_850_spd_096.txt.gz
Wind_Speed
21 18 16 15 14 14 14 14 15 17 18 18 18 19 19 18 18 19 18 19 18 18 19 17 19 17 15 14 17 16 16 19
22 20 18 17 15 14 14 14 15 17 18 18 18 19 20 19 20 20 19 20 19 18 17 20 18 17 17 19 18 15 16 18
23 23 22 19 17 16 16 15 15 16 17 18 18 20 20 20 21 20 20 20 20 21 19 20 20 18 18 17 20 18 17 18
24 26 25 23 21 20 18 17 17 17 17 18 18 18 18 20 20 20 22 22 23 24 21 19 20 21 22 24 25 20 18 19
25 24 25 26 25 24 22 20 18 18 18 18 18 18 19 20 20 21 23 21 26 27 23 22 23 24 24 24 24 22 19 21
27 27 24 28 30 27 25 23 20 19 20 19 19 19 20 21 20 22 23 23 28 27 25 24 25 25 22 24 27 24 21 22
32 31 29 27 32 30 28 25 23 19 20 20 19 20 21 21 21 23 25 27 28 29 28 25 27 23 24 28 29 25 22 23
33 33 33 32 29 32 30 28 24 22 20 21 19 19 20 20 21 23 24 28 29 32 31 26 27 26 26 26 27 26 26 26
35 31 34 35 31 29 32 31 27 24 22 21 20 19 19 20 20 22 23 26 32 35 35 26 24 24 26 26 29 29 28 27
34 33 34 36 34 31 30 33 31 26 23 21 20 19 20 21 22 23 23 24 28 32 36 29 26 28 25 24 29 31 30 28
38 34 36 37 36 35 34 33 33 29 25 23 23 22 22 23 24 23 24 24 26 29 31 31 29 28 28 26 24 32 33 29
45 38 35 39 39 39 39 33 33 32 28 25 26 25 24 24 24 25 27 26 25 24 23 26 28 28 28 26 29 35 33 32
46 41 35 38 44 41 40 39 38 36 31 29 28 26 26 25 26 27 28 27 26 23 22 28 30 29 24 22 30 34 33 32
40 47 41 40 44 45 45 45 41 36 32 30 28 26 26 25 25 27 26 27 26 25 25 28 29 29 27 18 15 27 33 35
35 41 45 43 41 48 44 44 37 31 32 30 28 28 24 25 24 24 24 24 25 26 27 29 28 29 28 18 12 8 33 34
37 36 44 45 46 49 47 48 40 38 36 32 28 26 26 25 26 24 24 25 24 24 26 28 28 29 30 31 26 27 27 21
30 31 43 47 47 48 49 45 38 35 33 29 25 25 27 25 26 26 25 25 26 28 30 32 32 31 33 34 30 31 32 31
21 33 42 47 48 51 46 43 38 35 31 28 26 22 25 27 24 27 28 29 31 32 35 35 33 32 33 38 43 39 42 34
25 33 41 45 48 45 44 40 36 33 30 29 25 23 24 23 21 25 30 31 33 35 33 34 34 33 36 41 46 38 36 35
22 30 33 36 41 42 37 34 34 30 27 26 23 21 19 17 21 26 26 27 28 28 28 33 36 37 40 45 47 42 38 42